Regional Weather Roundup
Issued by NWS

Home | Current Version | Previous Version | Text Only | Print | Product List | Glossary On
Versions: 1 2 3 4 5 6 7 8 9 10 11 12 13 14 15 16 17 18 19 20 21 22 23 24 25 26 27 28 29 30 31 32 33 34 35 36 37 38 39 40 41 42 43 44 45 46 47 48 49 50
000
ASUS44 KOUN 270210
RWROK

WEATHER ROUNDUP FOR OKLAHOMA
NATIONAL WEATHER SERVICE NORMAN OK
900 PM CDT MON SEP 26 2016

NOTE: "FAIR" INDICATES FEW OR NO CLOUDS BELOW 12,000 FEET WITH NO
      SIGNIFICANT WEATHER AND/OR OBSTRUCTIONS TO VISIBILITY.

OKZ001>007-009>012-014-015-017-270300-
NORTHWEST OKLAHOMA AND THE PANHANDLE

CITY           SKY/WX    TMP DP  RH WIND       PRES   REMARKS
GAGE           CLOUDY    59  44  57 S9        30.23R
GUYMON         CLEAR     61  35  37 S6        30.24R
ENID/WOODRING  PTCLDY    61  52  72 N6        30.19S
$$

OKZ016-021>023-033>039-044-045-270300-
SOUTHWEST OKLAHOMA

CITY           SKY/WX    TMP DP  RH WIND       PRES   REMARKS
LAWTON/REGL    PTCLDY    60  47  61 NW5       30.20R
LAWTON/FT SILL CLEAR     62  44  51 N5        30.19R
FREDERICK      PTCLDY    60  51  72 N9        30.18R
CLINTON        CLOUDY    62  46  55 SE3       30.25R
HOBART         CLOUDY    63  50  62 N5        30.23R
ALTUS AFB      CLEAR     58  46  65 N6        30.21R
$$

OKZ018>020-024>031-270300-
CENTRAL OKLAHOMA

CITY           SKY/WX    TMP DP  RH WIND       PRES   REMARKS
OKLAHOMA CITY  MOCLDY    66  40  38 N8        30.18S
OKC/WILEY POST CLOUDY    64  47  53 N6        30.19S
OKC/TINKER AFB CLEAR     64  41  42 NE8       30.18R
STILLWATER     CLOUDY    55  50  83 NW6       30.19R
GUTHRIE        CLOUDY    58  50  75 CALM      30.19S
$$

OKZ008-013-054>072-270300-
NORTHEAST OKLAHOMA

CITY           SKY/WX    TMP DP  RH WIND       PRES   REMARKS
TULSA          PTCLDY    62  45  53 CALM      30.16R
TULSA/JONES    PTCLDY    57  49  74 CALM      30.18R
PONCA CITY     CLEAR     57  50  77 CALM      30.19R
BARTLESVILLE   CLEAR     52  47  83 CALM      30.19R
MUSKOGEE       CLOUDY    63  44  50 N3        30.18R
$$

OKZ032-040>043-046>053-073>077-270300-
SOUTH CENTRAL/SOUTHEAST OKLAHOMA

CITY           SKY/WX    TMP DP  RH WIND       PRES   REMARKS
ARDMORE/DWNTWN PTCLDY    64  46  52 CALM      30.17R
MCALESTER      PTCLDY    64  46  52 N6        30.17R
$$





USA.gov is the U.S. government's official web portal to all federal, state and local government web resources and services.